Lid_Strength_Index
11 11 10 10 10 10 11 11 11 14 14 11 11 9 10 9 9 10 10 9 8 8 7 7 6 6 6 5 5 4 5 5 4 3 2 0 -0 -0
11 12 12 11 11 11 11 11 11 12 14 11 11 11 10 10 9 10 10 10 9 9 8 8 8 7 7 6 6 5 5 4 4 4 3 3 2 0
12 13 13 12 12 12 11 12 13 13 15 14 13 12 12 12 12 11 11 11 11 10 9 9 8 8 7 7 7 6 6 5 3 3 5 5 4 2
14 14 14 13 14 14 14 14 14 14 14 15 14 14 14 13 13 14 13 12 13 11 10 9 8 8 8 7 7 7 6 6 6 6 5 5 5 3
14 15 16 16 15 15 15 14 14 14 14 15 15 14 14 14 15 15 14 14 13 11 10 10 9 8 8 8 8 7 7 7 7 6 5 5 5 5
15 15 16 16 15 15 14 14 14 15 14 15 15 16 15 15 16 17 17 15 16 14 13 11 11 11 9 8 8 8 7 7 6 6 6 6 5 4
16 15 15 15 14 14 14 15 15 15 15 16 17 17 18 18 18 17 18 17 17 15 15 16 15 14 12 10 9 8 7 6 6 6 7 6 6 5
16 16 16 16 15 13 13 14 14 15 16 17 18 18 18 18 18 18 19 20 20 17 18 18 16 16 14 13 10 9 8 7 6 6 6 6 6 6
17 17 17 16 15 14 14 15 15 15 14 17 19 19 19 18 17 19 19 20 20 19 19 20 17 16 15 14 12 11 10 8 7 6 6 5 6 6
17 17 17 16 15 15 17 18 17 17 17 17 17 17 16 15 16 16 18 19 19 17 16 20 16 17 16 15 12 11 9 9 8 8 7 6 6 6
17 17 17 17 15 15 18 19 19 18 17 16 16 16 15 15 15 18 20 21 22 19 15 17 16 17 16 15 12 10 11 11 10 10 8 7 7 6
18 18 16 16 15 15 18 19 22 20 22 21 21 19 18 17 16 17 18 21 20 20 14 18 16 16 19 14 14 13 13 12 10 10 10 8 7 7
20 19 18 15 15 16 16 18 19 20 23 23 23 22 20 20 19 18 17 17 19 18 14 15 16 16 17 19 16 14 13 12 11 12 10 9 8 7
20 19 18 16 17 18 18 17 19 22 24 25 25 24 23 22 20 18 16 16 15 16 14 13 17 17 18 20 19 15 14 12 12 12 12 11 9 7
20 19 18 19 19 22 19 19 23 25 26 27 26 25 23 21 19 19 18 17 17 16 14 15 16 17 18 19 19 18 16 12 12 13 13 13 13 11
23 24 21 21 21 22 25 24 25 26 26 27 26 24 22 22 22 21 22 21 22 20 17 17 18 18 20 18 18 19 15 15 13 13 14 13 12 12
32 33 31 29 28 28 28 28 26 26 27 27 27 26 25 24 24 23 22 23 24 24 23 20 19 18 17 18 19 17 15 15 15 15 14 15 13 12
34 38 36 35 32 31 31 29 29 28 28 28 28 28 27 27 26 25 23 24 25 24 24 22 22 21 20 17 14 17 17 17 16 16 15 16 16 12
38 40 39 38 36 33 33 32 32 29 31 30 29 29 28 28 27 27 25 24 25 25 24 23 23 24 26 26 19 14 19 17 18 18 16 15 16 13
41 40 39 39 38 37 36 35 32 31 30 31 31 31 31 30 29 28 26 26 26 25 25 23 23 24 25 25 24 20 15 18 19 19 18 15 13 9
40 40 41 40 39 39 37 37 38 35 33 35 36 35 32 31 30 29 27 26 26 26 27 25 23 20 21 21 23 23 20 16 17 19 17 17 16 13
40 40 38 41 41 40 38 39 38 38 37 39 38 36 33 33 31 30 28 27 26 26 26 24 22 22 23 24 25 24 23 21 18 16 15 15 16 15
37 38 38 39 40 39 40 40 40 35 37 38 37 37 36 33 31 30 29 27 26 26 26 26 24 23 24 24 25 24 24 23 22 21 20 16 14 13